Wind_Speed
30 31 31 31 31 32 32 32 33 33 33 32 32 32 33 34 33 33 33 33 34 35 35 34 34 34 33 33 33 33 33 33 32 33 33 33 33 33 33 34 35 35 36
29 29 30 30 31 31 31 31 31 32 33 34 33 33 34 35 35 36 36 35 35 35 35 35 35 35 35 34 34 34 34 34 35 35 35 35 35 35 35 36 37 38 38
27 28 29 29 30 31 31 31 32 31 33 34 34 34 34 35 35 35 35 36 37 36 35 35 35 36 36 35 35 35 36 36 37 37 37 37 36 36 36 37 38 39 40
25 27 28 29 29 30 31 31 32 33 33 34 35 35 35 36 36 37 37 37 37 37 36 35 35 35 36 36 36 36 36 37 38 38 38 38 39 39 38 39 40 41 41
25 26 27 28 29 30 31 32 32 33 34 35 36 36 35 36 36 37 37 37 37 36 37 37 36 36 36 37 37 37 37 38 38 38 39 40 41 41 42 41 42 42 43
24 24 26 27 28 29 30 32 33 33 34 35 36 37 37 37 37 38 38 38 38 38 38 38 38 38 39 39 40 39 39 39 40 40 41 42 43 44 44 44 45 45 46
22 24 26 27 27 29 29 30 32 33 34 35 36 36 37 38 38 39 39 40 40 40 40 39 39 40 41 41 41 41 41 41 41 42 44 45 46 46 47 48 48 48 49
21 23 25 26 27 28 30 31 32 33 34 35 36 37 37 38 38 39 39 40 40 41 41 41 40 40 41 41 41 42 43 43 44 45 46 47 48 49 50 51 51 51 51
21 23 24 26 27 29 31 33 34 34 35 36 37 37 38 38 39 39 40 40 40 40 41 41 41 41 42 42 43 44 45 45 46 47 48 49 50 51 52 53 54 54 54
21 23 25 26 27 29 31 33 35 35 36 37 38 39 39 40 40 40 40 41 41 41 42 42 42 43 43 44 44 46 46 47 48 49 50 51 53 54 55 55 56 56 56
23 24 25 27 28 29 31 33 35 36 37 37 38 39 40 41 41 42 42 42 43 43 43 44 44 45 45 46 46 48 49 50 51 52 52 53 54 54 55 56 57 57 58
25 26 27 29 30 31 32 33 34 36 37 38 39 40 41 41 42 42 43 44 44 45 45 46 47 47 48 48 49 50 51 52 52 53 54 54 55 56 57 58 58 59 60
27 28 30 30 31 32 33 34 34 36 37 38 38 39 40 41 42 43 44 44 45 46 47 48 49 49 49 50 51 51 52 53 54 55 56 57 58 58 59 60 61 62 62
29 29 30 31 32 33 34 35 36 37 37 38 39 39 40 41 42 43 44 45 46 47 48 49 50 50 51 52 52 53 54 54 55 56 57 58 59 60 61 62 62 62 62
30 31 31 32 33 34 34 35 36 37 38 38 39 40 41 42 42 44 45 46 47 48 49 50 50 51 52 52 53 54 55 56 57 58 59 60 61 61 62 62 62 62 62
32 33 33 34 34 35 35 36 37 38 38 39 40 41 42 43 44 45 46 47 48 48 49 50 51 51 52 53 54 55 56 57 58 59 60 61 61 62 62 62 62 62 62
34 34 35 35 35 36 36 37 38 39 39 40 42 42 44 44 45 46 47 47 48 49 49 50 50 51 52 53 55 57 58 59 60 61 61 61 61 62 61 61 61 61 62
36 36 36 37 37 37 38 39 39 40 41 42 43 43 45 46 46 47 48 48 49 49 50 50 51 52 53 55 57 58 59 60 61 62 62 62 61 61 61 61 61 61 60
37 37 38 38 38 39 40 40 41 42 42 43 44 45 46 47 48 48 49 49 50 51 51 52 53 54 55 57 58 59 60 61 62 62 62 62 62 62 62 62 61 60 59
37 38 39 39 40 41 41 42 43 44 44 45 46 46 47 48 49 49 50 51 52 52 53 53 54 55 56 57 59 60 61 62 62 62 62 62 62 62 62 61 60 59 58
39 40 40 41 42 43 43 44 45 45 46 47 47 48 49 49 50 50 51 52 53 53 54 54 55 56 58 59 59 61 61 62 62 62 61 61 61 61 60 59 58 58 57
41 41 42 43 44 44 45 45 46 47 48 48 48 49 49 50 50 51 52 53 54 54 55 56 57 57 59 59 60 61 61 62 62 61 60 60 59 58 57 56 56 56 55
43 43 44 44 44 45 46 46 47 48 48 48 48 49 50 50 51 52 52 53 55 56 57 57 58 58 59 59 60 60 60 60 60 59 59 58 56 55 54 53 53 53 53
44 45 45 45 45 45 46 46 47 47 48 48 49 49 50 51 51 52 53 54 55 57 58 58 59 59 59 59 59 59 58 58 57 57 56 54 52 52 51 51 51 51 51
45 46 46 46 46 46 46 46 46 47 47 48 49 50 50 51 52 53 54 55 56 57 58 58 59 59 58 58 58 57 56 56 55 54 52 51 50 50 49 49 49 49 49
45 45 45 45 45 45 45 45 46 47 48 48 49 50 51 51 52 53 53 53 54 55 56 56 57 57 57 56 55 54 54 53 52 51 49 49 48 48 48 47 47 46 46
Wind_Direction
226 226 227 229 232 236 239 241 243 246 249 252 254 256 259 261 264 267 270 272 273 274 275 276 277 277 278 279 279 279 281 281 281 283 284 285 286 287 289 290 290 291 292
227 227 228 232 235 239 242 244 245 248 250 253 256 258 260 261 263 267 269 271 273 274 277 277 277 278 278 278 278 279 280 280 281 282 282 283 284 286 288 290 291 291 292
230 232 234 235 237 239 243 245 247 250 253 254 257 259 262 264 265 267 272 273 273 275 277 278 279 279 278 278 278 278 280 281 281 281 282 283 284 285 287 289 291 293 293
236 235 236 237 238 240 244 247 249 252 255 257 259 261 262 265 267 270 273 275 275 275 277 278 278 279 279 278 278 279 280 281 281 282 282 283 284 286 287 289 291 292 293
242 240 239 241 242 244 247 251 252 255 257 259 261 262 264 267 268 271 273 275 276 276 276 276 277 278 278 279 280 280 281 281 282 282 283 283 285 286 287 289 291 292 292
244 244 245 246 246 247 248 251 255 257 259 261 263 265 267 268 270 272 274 275 277 277 277 277 278 279 281 281 282 281 281 282 282 283 284 284 285 287 288 289 289 290 291
247 247 248 250 250 251 252 253 256 259 261 264 265 268 269 270 272 274 275 275 276 277 278 279 280 280 282 282 281 281 281 282 283 284 285 286 286 287 288 289 289 290 291
251 251 252 253 255 256 256 258 260 263 264 266 267 268 269 271 273 274 275 276 276 277 279 280 280 281 282 281 280 280 281 282 284 284 285 286 286 287 288 289 290 290 290
257 256 256 256 259 260 260 260 263 265 267 268 270 271 272 274 275 275 275 276 277 279 281 281 281 283 283 282 282 282 282 283 284 285 286 287 287 288 289 290 290 290 290
260 259 259 258 261 263 263 264 265 267 269 270 271 273 275 277 277 278 278 278 279 280 281 282 283 284 284 284 283 284 284 285 285 285 286 287 288 288 289 289 290 291 291
265 263 263 263 265 267 267 268 268 269 271 273 274 275 276 277 278 278 278 278 279 279 281 282 283 284 284 283 283 284 285 285 286 287 287 288 289 289 290 290 290 291 291
266 267 267 268 270 271 272 273 273 273 274 275 276 276 277 277 277 278 278 278 280 280 281 282 284 285 285 284 284 285 286 286 287 287 288 288 289 290 290 291 290 290 290
268 269 270 272 273 274 275 276 276 276 276 277 277 278 278 278 278 279 279 279 280 281 282 283 284 285 284 285 285 285 286 287 287 288 288 289 289 290 290 291 291 290 290
273 274 275 275 276 276 277 278 278 278 278 278 278 279 280 280 279 280 280 281 282 282 283 283 284 284 285 286 286 286 287 287 288 289 290 290 290 290 291 291 291 290 290
277 277 278 277 277 277 278 279 279 279 279 279 280 280 281 281 281 281 281 282 282 283 284 284 284 286 286 286 286 287 288 289 290 290 291 291 291 291 292 291 291 290 290
278 278 279 279 278 278 278 279 280 280 280 280 281 281 282 282 283 283 283 284 284 285 285 286 286 287 287 287 288 288 289 290 291 291 291 291 291 292 292 291 291 290 290
279 278 278 279 279 280 280 280 281 281 281 281 281 282 282 283 284 284 284 284 285 286 287 288 288 288 288 288 289 290 291 291 291 292 292 291 292 292 291 291 290 290 290
278 278 279 280 280 281 281 282 282 283 283 282 282 283 284 284 285 285 285 286 286 287 288 288 289 289 289 290 290 291 292 292 292 292 292 292 292 292 291 291 291 291 290
279 279 279 280 281 281 282 283 283 283 283 283 283 284 285 285 285 285 286 286 287 287 288 289 289 290 291 291 292 292 292 293 293 293 293 292 292 292 291 291 291 290 290
279 279 280 281 282 282 282 283 283 284 284 284 284 285 285 286 286 286 286 287 287 288 289 290 291 291 291 292 292 293 293 293 293 293 293 292 292 292 292 291 290 290 289
280 280 281 281 282 282 283 283 284 284 284 284 285 285 286 286 286 287 287 288 288 289 289 290 291 292 292 293 293 293 294 294 294 294 293 293 292 292 291 290 290 289 289
281 281 281 282 282 282 283 283 284 284 284 285 285 286 286 286 287 287 288 288 289 289 289 290 291 292 293 293 293 294 294 295 295 295 294 293 293 292 291 290 290 289 289
282 282 282 282 283 284 284 285 285 285 286 286 287 287 287 287 288 288 289 290 290 290 290 291 292 292 293 294 294 294 295 295 295 295 295 294 293 292 291 291 290 290 290
282 282 282 282 283 284 285 285 286 286 287 287 288 288 288 289 289 290 290 291 291 291 292 293 294 294 295 294 294 294 295 295 295 295 295 294 294 293 292 291 290 290 290
281 281 282 282 283 284 284 285 286 287 287 288 289 290 290 290 291 291 292 292 292 293 294 295 295 296 296 296 295 295 295 295 296 295 295 294 294 293 293 292 291 291 291
283 282 282 282 283 283 284 285 286 287 288 289 290 291 291 291 292 292 293 293 294 295 295 296 296 297 297 297 297 296 296 296 297 296 296 296 295 295 294 292 291 291 290
Height
5744 5749 5753 5758 5762 5765 5769 5772 5774 5776 5778 5779 5781 5783 5784 5784 5785 5786 5786 5786 5786 5786 5785 5785 5785 5784 5783 5783 5782 5781 5781 5780 5779 5778 5777 5775 5774 5772 5771 5769 5767 5765 5763
5741 5745 5749 5753 5756 5760 5763 5766 5768 5770 5772 5773 5775 5776 5777 5777 5778 5779 5779 5779 5779 5778 5778 5777 5777 5776 5776 5775 5774 5773 5773 5772 5771 5770 5769 5768 5767 5765 5763 5761 5759 5757 5754
5737 5741 5745 5748 5751 5754 5757 5759 5762 5763 5765 5766 5768 5769 5770 5770 5771 5771 5771 5771 5771 5770 5770 5769 5769 5768 5767 5767 5766 5765 5764 5763 5762 5761 5760 5759 5758 5757 5755 5753 5750 5747 5745
5733 5736 5740 5743 5745 5748 5751 5753 5756 5757 5758 5759 5761 5762 5762 5763 5763 5764 5764 5763 5762 5762 5761 5761 5760 5759 5759 5758 5757 5756 5755 5754 5753 5752 5750 5749 5748 5747 5746 5744 5741 5738 5735
5729 5732 5735 5738 5741 5743 5745 5747 5749 5750 5751 5752 5753 5754 5754 5755 5755 5755 5756 5755 5754 5753 5753 5752 5752 5751 5750 5750 5749 5747 5746 5745 5744 5742 5741 5739 5738 5736 5735 5733 5731 5728 5725
5726 5728 5730 5733 5735 5737 5739 5741 5742 5743 5744 5745 5746 5746 5746 5747 5747 5747 5747 5747 5746 5745 5744 5744 5743 5742 5741 5740 5739 5738 5737 5735 5734 5732 5731 5729 5727 5725 5723 5722 5720 5717 5714
5722 5724 5726 5728 5730 5731 5732 5734 5736 5736 5737 5738 5738 5738 5738 5738 5738 5738 5738 5738 5737 5736 5736 5735 5734 5733 5732 5730 5729 5728 5726 5725 5723 5722 5720 5718 5716 5713 5711 5709 5707 5705 5703
5718 5719 5721 5722 5724 5725 5726 5727 5728 5729 5729 5730 5730 5730 5730 5729 5729 5729 5729 5728 5727 5727 5726 5725 5724 5723 5722 5720 5719 5717 5716 5714 5712 5710 5708 5706 5703 5701 5698 5696 5693 5692 5690
5714 5715 5715 5717 5717 5718 5719 5720 5721 5721 5721 5722 5721 5721 5721 5721 5720 5719 5719 5718 5718 5717 5716 5715 5714 5713 5711 5710 5708 5707 5705 5703 5701 5699 5696 5693 5691 5688 5685 5682 5679 5677 5675
5709 5709 5710 5710 5711 5711 5712 5712 5713 5713 5713 5713 5713 5712 5712 5711 5710 5710 5709 5708 5707 5707 5706 5705 5703 5702 5700 5699 5697 5695 5693 5691 5689 5686 5684 5681 5678 5675 5672 5668 5665 5661 5659
5703 5703 5704 5704 5704 5704 5704 5704 5704 5704 5704 5704 5703 5703 5702 5701 5700 5699 5699 5698 5697 5696 5695 5693 5692 5690 5689 5687 5685 5683 5681 5679 5676 5673 5671 5668 5664 5661 5658 5654 5650 5646 5643
5697 5697 5697 5697 5697 5697 5696 5696 5695 5695 5695 5694 5694 5693 5692 5691 5690 5689 5688 5687 5686 5685 5683 5682 5680 5678 5676 5674 5672 5670 5668 5665 5663 5660 5657 5653 5650 5646 5642 5639 5635 5631 5627
5691 5690 5690 5690 5689 5689 5688 5687 5687 5686 5686 5685 5684 5683 5682 5680 5679 5678 5677 5675 5674 5673 5671 5670 5668 5666 5663 5661 5659 5657 5654 5652 5649 5645 5642 5638 5634 5631 5627 5623 5619 5615 5611
5684 5683 5683 5682 5681 5680 5680 5679 5678 5677 5676 5675 5674 5673 5671 5669 5668 5666 5665 5664 5662 5661 5659 5657 5654 5652 5650 5648 5645 5643 5640 5637 5634 5630 5626 5622 5618 5614 5610 5606 5602 5597 5593
5677 5676 5675 5674 5673 5672 5671 5670 5669 5668 5666 5665 5664 5662 5660 5658 5657 5655 5654 5652 5650 5648 5646 5643 5641 5638 5636 5633 5630 5628 5625 5622 5619 5615 5610 5606 5601 5597 5592 5588 5584 5579 5575
5669 5668 5667 5666 5664 5663 5662 5661 5660 5658 5656 5655 5653 5651 5650 5648 5646 5644 5642 5640 5637 5635 5633 5630 5627 5624 5621 5618 5615 5612 5610 5606 5602 5598 5594 5589 5584 5579 5574 5570 5565 5561 5557
5660 5659 5658 5656 5655 5654 5652 5651 5649 5647 5646 5644 5642 5640 5638 5636 5634 5632 5630 5627 5625 5622 5619 5616 5613 5610 5607 5603 5600 5596 5593 5590 5586 5581 5577 5572 5567 5562 5557 5553 5548 5544 5539
5651 5649 5648 5647 5645 5644 5642 5640 5638 5637 5635 5633 5631 5629 5626 5624 5622 5620 5617 5614 5612 5609 5606 5603 5599 5596 5592 5588 5584 5580 5577 5573 5569 5564 5559 5554 5550 5544 5539 5535 5531 5527 5522
5641 5640 5638 5637 5635 5633 5631 5630 5628 5626 5623 5621 5619 5617 5614 5612 5609 5606 5604 5601 5598 5595 5592 5588 5585 5581 5577 5573 5568 5564 5560 5556 5552 5547 5541 5536 5531 5526 5521 5517 5513 5509 5505
5631 5629 5628 5626 5624 5622 5620 5618 5616 5614 5611 5609 5607 5604 5601 5599 5596 5593 5590 5587 5584 5581 5577 5574 5570 5566 5562 5557 5552 5547 5543 5539 5535 5530 5524 5518 5513 5508 5502 5498 5494 5491 5487
5620 5618 5617 5615 5613 5611 5608 5606 5604 5602 5599 5597 5594 5591 5588 5585 5583 5580 5576 5573 5570 5566 5563 5560 5556 5551 5546 5541 5536 5530 5525 5520 5516 5512 5507 5501 5495 5490 5484 5479 5475 5472 5468
5609 5607 5605 5603 5601 5599 5596 5594 5592 5589 5586 5584 5581 5578 5575 5572 5569 5566 5562 5559 5555 5551 5548 5544 5540 5536 5530 5524 5519 5513 5508 5502 5498 5493 5488 5483 5478 5472 5467 5463 5458 5454 5450
5597 5595 5593 5591 5589 5586 5584 5581 5579 5576 5573 5571 5568 5565 5561 5558 5555 5551 5548 5544 5540 5536 5532 5527 5523 5519 5514 5508 5502 5497 5491 5485 5480 5475 5470 5466 5460 5456 5451 5446 5442 5438 5434
5584 5582 5580 5578 5576 5574 5571 5568 5565 5562 5560 5557 5554 5551 5547 5544 5540 5537 5533 5529 5524 5520 5515 5511 5506 5502 5498 5492 5485 5480 5475 5469 5463 5458 5454 5449 5444 5439 5435 5431 5427 5422 5418
5571 5569 5567 5565 5563 5560 5558 5555 5552 5549 5546 5543 5540 5537 5533 5530 5526 5522 5518 5513 5509 5503 5498 5494 5488 5484 5480 5475 5468 5463 5458 5453 5448 5443 5439 5434 5429 5425 5421 5416 5412 5408 5404
5558 5556 5554 5551 5549 5547 5544 5542 5539 5536 5533 5530 5526 5523 5519 5515 5511 5507 5503 5498 5493 5488 5482 5477 5471 5466 5462 5457 5452 5447 5442 5436 5431 5427 5423 5419 5414 5410 5406 5402 5398 5395 5391